Location: Newark
(39.0622°N, 106.5590°E)
Time: 00:41:16
(UTC+00:00)

Courier 1B - Pass Details

Date: 28 January 2020
Orbit: 962 x 1209 km, 28.3° (Epoch: 27 February)

Event Time Altitude Azimuth Distance (km) Brightness Sun altitude
Rises 22:17:25 0° 261° (W) 3,913 - -20.7°
Reaches altitude 10° 22:20:35 10° 250° (WSW) 2,994 - -20.1°
Exits shadow 22:23:00 19° 234° (SW) 2,428 9.2 -19.6°
Maximum altitude 22:26:34 27° 196° (SSW) 2,066 9.1 -19.0°
Drops below altitude 10° 22:32:47 10° 142° (SE) 3,109 10.8 -17.8°
Sets 22:36:09 0° 131° (SE) 4,090 11.8 -17.1°
